{"data":{"norad_id":57106,"intl_designator":"2023-090F","name":"STARLINK-6118","alt_names":[],"object_type":"PAYLOAD","status":"ACTIVE","operator":null,"country":"US","launch_date":"2023-06-23","launch_site_code":"AFETR","launch_vehicle":null,"mission":null,"orbit_class":"UNKNOWN","rcs_meters":null,"size_class":null,"mass_kg":null,"dimensions":null,"purposes":["comms"],"wikipedia_slug":null,"has_3d_model":false,"image_url":null,"decayed_at":null,"tle_current":{"epoch":"2026-05-24T20:57:56.065248Z","epoch_age_seconds":86766,"freshness":"FRESH","line1":"1 57106U 23090F   26144.87356557 -.00000966  00000+0 -26345-4 0  9992","line2":"2 57106  43.0024 211.3126 0001486 278.0931  81.9751 15.26739822161980","mean_motion":15.26739822,"eccentricity":0.0001486,"inclination_deg":43.0024,"raan_deg":211.3126,"arg_perigee_deg":278.0931,"mean_anomaly_deg":81.9751,"bstar":-2.6345e-5,"rev_number":16198,"period_min":94.318624512828,"perigee_km":484.5460986008,"apogee_km":486.58599114574,"semimajor_km":6863.7030448733,"source":"CELESTRAK","updated_at":"2026-05-25T13:38:18.240164Z"}}}